Simultaneous Nadir Overpasses (SNOs) Predictions

Prediction of SNOs between GOES-14 and AQUA Satellite Orbit:

Table of predicted SNOs for the next 14.0 days since TLE Epoch: 2/20/2021
Index Date Time (GOES-14) GOES-14 Lat,Lon AQUA Lat,Lon Distance(km) Time Diff (sec)
1 02/21/2021 08:33:03 0.01,-104.39 0.08,-104.70 35.19 80
2 02/23/2021 08:23:32 0.01,-104.39 -0.56,-101.74 301.42 80
3 02/23/2021 20:44:55 -0.02,-104.19 -0.59,-106.92 309.88 80
4 02/25/2021 20:30:03 -0.02,-104.19 0.00,-103.96 26.50 80
5 02/27/2021 20:17:52 -0.01,-104.19 0.65,-101.00 362.65 80
6 02/28/2021 08:39:09 0.02,-104.38 0.38,-106.17 203.13 80
7 03/02/2021 08:29:37 0.02,-104.39 -0.21,-103.21 133.64 80
8 03/02/2021 20:51:00 -0.03,-104.22 -0.93,-108.39 474.74 80
9 03/04/2021 08:17:26 0.01,-104.39 -0.87,-100.25 470.31 80
10 03/04/2021 20:38:49 -0.02,-104.21 -0.27,-105.43 138.52 80
